sat.trackr.live / text

‹ back to catalog

HAWK-C

NORAD 43799 · 2018-099AT

PAYLOAD ACTIVE UNKNOWN

§ Identity

Operator
Country
US
Launch date
2018-12-03
Launch site
AFWTR
Launch vehicle
Mass (kg)
RCS (m²)

Purposes: tech_demo

External: N2YO · Heavens-Above · Gunter

§ Orbital elements

Epoch: 2026-09-19T09:10:31.572768Z

Period
94.16 min
Inclination
97.3791°
Eccentricity
0.0037824
Mean motion
15.29391356 rev/d
Perigee alt
451.7 km
Apogee alt
503.6 km
Semi-major
6,855.8 km
B*
1.7871e-4
RAAN
314.7978°
Arg perigee
313.1713°
Mean anomaly
46.6367°
Rev number
42,830

§ Raw data

HAWK-C1 43799U 18099AT  26262.38230987  .00005124  00000+0  17871-3 0  99952 43799  97.3791 314.7978 0037824 313.1713  46.6367 15.29391356428305

JSON: /api/v1/satellites/43799 · /tle

For live sub-satellite position, see the globe view (requires WebGL).

§ Visibility from observer

Set your observer location to see the next 7 days of passes ≥ 10°. The values pass through the URL so the page stays shareable.

No JS? Fill the form by hand. The geolocation button needs JavaScript.